User: anonymous   Login
Location: Unspecified
(0.0000°N, 0.0000°E)
Time: 19:05:39
(UTC+00:00)
Language:

TBA - TO BE ASSIGNED - Orbit

View from above orbital plane
View from above orbital plane
View from above satellite
View from above satellite

Ground track
Ground track

The orbit is defined by the following mean orbital elements,

1 68010U          26145.50689970 +.00000000 +00000-0 +46457-3 0 00009
2 68010  43.0036 334.9170 0000503 285.6706  74.4090 15.27594215    07
Epoch (UTC): 25 May 2026 12:09:56
Eccentricity: 0.0000503
inclination: 43.0036°
perigee height: 483 km
apogee height: 483 km
right ascension of ascending node: 334.9170°
argument of perigee: 285.6706°
revolutions per day: 15.27594215
mean anomaly at epoch: 74.4090°

The dashed part of the orbit path shows where the satellite is in the earth's shadow,  

DLR